Wind_Speed
46 36 27 19 13 19 24 23 24 23 21 19 19 20 17 16 16 24 25 17 13 12 18 20 13 10 15 14 10 10 9 10 12 14 16 18 20 19 20 22 25 25 25
49 37 30 24 24 25 27 29 27 25 22 19 19 22 20 19 18 21 17 24 21 13 15 13 13 4 3 4 8 8 10 9 8 9 10 10 11 15 17 20 21 24 24
53 43 36 32 30 32 34 32 29 25 24 24 23 22 23 22 18 16 15 19 20 14 13 15 15 13 9 3 5 11 8 7 8 7 7 8 11 12 16 18 21 25 29
59 47 40 38 36 38 37 33 32 31 28 25 21 21 18 16 16 18 17 16 15 16 12 10 9 6 5 3 2 0 4 7 7 8 8 11 13 16 18 21 26 28 27
60 57 46 43 41 38 36 36 34 30 26 23 20 18 16 16 15 16 14 12 12 10 8 6 5 5 2 2 1 3 7 6 7 9 11 14 17 22 24 27 25 22 21
53 57 53 45 40 37 36 34 32 28 25 23 21 21 19 19 16 14 13 12 11 9 7 6 4 2 1 1 5 6 6 5 8 11 15 20 22 22 20 20 18 19 24
49 52 53 47 40 37 34 31 29 29 27 27 25 21 16 17 14 15 13 11 9 9 8 6 5 2 1 3 7 7 7 11 13 17 21 20 19 18 18 23 27 30 30
47 46 46 46 42 40 36 34 29 28 26 24 24 22 21 19 16 15 13 12 9 8 8 7 6 5 5 6 7 8 12 14 15 17 16 15 17 22 25 30 30 27 27
48 44 43 41 41 41 36 32 29 30 30 30 28 25 23 20 16 17 16 14 10 11 12 11 12 11 9 7 8 9 12 12 11 13 17 20 22 27 29 29 29 25 26
49 47 43 40 37 35 34 34 32 28 28 26 28 26 21 19 15 11 12 12 10 11 11 9 7 8 9 11 12 13 14 15 18 18 18 19 24 26 26 25 26 27 28
45 47 46 43 39 34 35 32 33 35 32 34 31 26 22 24 27 23 16 9 9 9 7 8 9 10 12 10 11 18 20 20 21 18 18 21 23 21 21 23 23 24 21
40 42 46 46 43 40 35 33 31 32 34 35 34 36 33 33 35 35 33 27 19 16 18 16 14 11 15 22 27 25 22 19 18 18 19 20 22 22 21 18 20 19 17
34 37 40 44 44 42 40 38 34 33 35 33 32 32 31 29 27 31 33 35 35 34 28 30 34 31 31 28 26 24 21 18 17 18 18 20 24 24 22 21 17 17 17
33 31 34 38 41 42 41 40 39 36 37 37 32 29 26 28 27 29 30 29 29 32 34 34 32 30 26 24 23 22 19 17 17 21 23 24 23 24 23 21 21 22 22
34 30 28 32 36 38 38 39 38 37 36 35 31 27 24 23 19 24 28 30 28 28 26 27 26 24 23 22 22 20 18 21 24 25 25 25 27 26 23 21 22 21 18
30 32 27 25 29 32 34 37 39 37 35 34 33 27 24 24 26 28 28 27 25 23 25 23 23 23 23 25 23 23 23 24 23 24 27 27 26 26 24 20 19 19 17
24 27 28 24 22 27 29 32 34 36 37 36 35 33 31 29 28 29 30 27 24 23 23 23 22 22 22 22 23 22 22 24 25 27 26 26 28 28 28 29 22 19 20
18 21 23 26 20 20 24 26 30 32 33 32 32 32 31 29 27 28 28 29 27 25 24 22 21 21 22 24 22 23 21 23 26 26 25 26 30 32 33 33 28 20 20
14 18 18 22 21 16 18 21 23 26 29 29 29 31 31 30 29 29 28 26 26 25 25 25 24 23 22 23 23 22 23 25 26 24 26 27 31 35 38 37 31 23 21
8 14 15 19 21 18 14 15 17 19 23 26 27 28 28 29 28 30 30 29 27 25 24 26 25 22 24 23 23 24 25 25 26 28 27 28 30 32 37 39 35 27 25
4 9 10 14 18 20 12 11 12 15 18 22 23 24 27 26 28 29 30 29 27 26 26 24 24 23 23 22 24 24 25 26 28 28 30 33 36 37 36 38 38 34 32
6 3 6 7 13 18 11 9 10 11 12 15 18 20 22 22 24 25 24 25 27 27 26 24 24 23 22 21 23 25 26 27 29 31 35 37 40 40 38 37 38 35 34
10 4 3 2 7 15 15 11 9 9 8 8 11 12 17 19 22 23 21 21 21 22 22 22 21 20 19 21 24 25 26 28 30 32 35 37 40 41 43 39 40 37 35
12 10 7 6 4 12 16 11 12 10 6 6 5 9 10 14 16 19 19 18 18 17 17 18 18 18 19 21 23 24 27 29 28 30 35 36 40 42 44 45 40 39 35
13 14 13 13 7 6 13 11 9 10 10 5 4 1 6 8 11 13 15 16 15 15 16 16 16 16 17 19 20 23 26 27 29 31 34 36 39 43 46 46 45 40 36
24 22 18 17 18 6 7 9 15 5 6 8 7 2 1 3 5 7 8 10 12 11 12 13 14 14 15 16 17 20 23 25 28 30 31 34 37 40 44 47 47 45 38
Wind_Direction
22 28 37 44 86 116 132 135 139 139 139 138 141 139 138 137 137 152 153 145 114 152 161 159 166 187 198 188 197 219 245 277 300 295 282 287 295 295 295 296 298 296 298
28 32 44 59 89 109 121 125 128 132 131 131 124 123 119 124 128 155 144 168 160 155 162 189 204 238 230 284 301 299 312 304 304 308 311 304 305 303 305 302 291 299 302
34 40 53 72 89 102 110 114 120 123 128 130 123 123 134 135 138 146 147 165 189 181 172 195 218 246 253 295 295 308 318 344 344 333 323 319 308 304 304 300 307 311 314
41 47 60 76 90 101 105 105 109 112 116 117 120 128 140 144 147 136 131 151 172 185 189 190 199 214 264 295 292 348 358 353 6 7 348 334 316 312 315 322 328 331 332
43 53 63 75 87 91 96 100 100 99 104 113 121 123 126 139 133 138 140 138 139 143 140 148 162 153 155 170 105 26 18 28 9 352 349 342 339 346 347 344 342 349 351
42 51 60 67 77 81 87 91 92 90 90 91 102 116 118 127 128 124 129 139 146 145 143 144 140 155 193 355 356 13 37 32 13 8 3 1 360 359 5 10 13 19 25
44 53 60 63 69 77 81 85 86 86 81 80 86 92 109 110 122 116 116 116 120 128 130 127 124 108 4 13 26 54 35 20 16 13 10 11 19 25 31 28 41 37 34
48 47 58 58 63 70 71 70 79 79 75 76 77 83 91 99 101 106 103 96 97 100 98 100 97 94 89 84 72 32 20 22 21 19 29 36 38 41 39 39 38 38 37
49 50 50 57 58 68 72 73 76 77 82 78 76 80 93 95 89 81 83 80 82 89 95 89 96 92 86 69 46 38 46 41 45 45 58 42 36 38 39 34 29 29 19
45 51 52 58 60 63 71 72 74 77 69 71 78 83 87 77 63 70 88 85 98 97 90 79 77 76 58 67 69 64 70 79 72 59 52 40 38 34 29 23 18 16 21
43 47 49 53 57 64 70 72 77 77 76 73 78 83 81 78 77 80 86 107 126 130 111 111 93 91 83 79 82 81 93 85 63 54 39 40 34 29 27 14 15 14 32
46 46 50 50 52 56 63 65 80 80 79 76 86 92 92 90 82 74 77 87 98 108 108 105 95 95 87 92 94 97 79 64 55 48 37 28 25 22 24 23 18 18 23
45 49 49 50 49 50 53 56 69 77 77 81 83 91 88 68 72 73 84 77 79 89 94 94 89 86 86 84 82 79 71 60 39 27 25 20 20 16 17 13 8 4 1
45 46 51 51 51 50 51 53 56 69 76 74 78 79 82 62 54 61 84 87 87 85 85 84 84 84 86 87 80 76 67 52 36 32 29 24 19 14 9 5 4 359 356
37 41 47 54 52 49 52 57 57 58 68 67 78 78 70 71 66 62 73 78 83 83 87 89 89 82 76 70 66 62 57 47 43 39 30 22 18 15 10 5 4 5 6
26 36 35 47 58 53 50 53 59 61 61 62 71 74 72 72 75 72 70 73 78 77 84 79 76 74 75 68 59 57 49 41 42 39 37 31 23 15 10 1 3 7 4
28 27 33 33 49 58 51 51 53 57 59 60 61 60 60 61 62 65 73 80 79 79 81 79 74 70 66 61 56 54 54 58 51 46 35 28 21 13 7 11 3 3 4
23 24 20 23 35 53 59 50 55 56 57 59 60 63 63 61 58 61 62 66 74 78 77 73 68 63 62 64 63 69 65 57 51 44 36 28 20 16 15 14 13 8 9
16 13 19 20 25 45 62 61 53 60 60 59 59 61 64 65 66 68 69 65 67 77 81 83 82 74 74 72 77 71 61 54 47 38 32 23 18 20 21 18 18 14 14
8 21 19 21 22 28 52 70 60 55 67 63 59 61 62 64 68 73 72 72 70 74 79 81 80 79 80 76 71 63 57 52 44 37 32 25 20 19 18 20 20 20 13
358 26 7 15 20 19 38 51 71 60 53 63 64 64 64 66 70 72 74 75 75 73 76 78 84 81 80 73 68 63 57 49 45 39 33 29 26 24 21 21 21 16 13
297 326 354 2 35 32 34 53 57 78 69 60 62 68 67 69 70 74 73 76 79 78 81 83 82 80 72 70 64 58 54 52 48 42 35 32 30 27 25 22 22 21 15
275 283 264 323 42 44 26 32 39 64 89 77 65 71 74 71 70 74 78 76 75 79 82 80 80 78 74 69 63 57 55 53 47 38 34 29 27 26 27 27 24 23 19
261 263 251 233 70 54 46 31 30 25 42 81 87 64 75 74 70 66 72 73 75 75 81 83 80 73 67 64 60 55 51 46 42 34 30 25 24 25 26 26 25 23 19
227 247 246 242 234 106 59 49 37 23 14 8 41 46 71 73 72 67 73 75 70 61 64 63 66 62 57 58 54 50 46 43 39 32 27 22 21 23 23 24 24 23 20
249 243 242 245 253 144 79 8 8 6 17 14 348 353 13 56 62 70 73 68 76 67 62 55 57 56 54 53 49 45 40 37 36 32 25 21 19 17 18 21 18 20 22
Height
10908 10899 10891 10889 10889 10892 10899 10903 10909 10916 10921 10926 10930 10933 10935 10937 10939 10942 10947 10951 10953 10957 10960 10962 10964 10965 10968 10969 10969 10971 10971 10970 10970 10969 10969 10968 10966 10964 10963 10961 10957 10955 10953
10912 10903 10896 10893 10894 10897 10903 10908 10914 10920 10925 10928 10931 10934 10936 10939 10942 10946 10949 10952 10954 10958 10960 10963 10964 10965 10966 10967 10969 10970 10971 10970 10969 10967 10966 10965 10963 10962 10960 10958 10954 10952 10950
10919 10908 10902 10900 10901 10904 10909 10914 10920 10925 10928 10932 10936 10938 10940 10942 10945 10947 10950 10953 10955 10958 10961 10963 10964 10965 10966 10968 10968 10969 10969 10968 10966 10965 10964 10964 10962 10961 10959 10956 10953 10950 10946
10927 10918 10913 10911 10912 10914 10917 10922 10926 10930 10933 10937 10939 10941 10944 10945 10947 10948 10951 10953 10956 10958 10960 10962 10963 10964 10966 10967 10968 10969 10968 10967 10965 10964 10964 10963 10962 10960 10957 10954 10949 10944 10940
10938 10930 10925 10924 10925 10927 10928 10931 10934 10938 10940 10942 10943 10945 10945 10947 10949 10951 10952 10953 10956 10958 10960 10962 10964 10965 10966 10967 10968 10968 10967 10965 10964 10964 10964 10961 10959 10956 10952 10948 10945 10942 10939
10948 10941 10937 10936 10936 10937 10938 10939 10941 10943 10944 10945 10945 10947 10948 10948 10951 10952 10953 10955 10956 10958 10960 10962 10963 10965 10966 10967 10967 10966 10966 10965 10965 10965 10962 10959 10957 10955 10952 10949 10945 10942 10940
10957 10954 10949 10947 10946 10946 10946 10946 10946 10947 10948 10949 10949 10949 10950 10952 10954 10953 10955 10956 10958 10959 10961 10962 10963 10964 10965 10965 10965 10965 10966 10965 10965 10963 10960 10958 10956 10955 10953 10950 10946 10943 10939
10966 10964 10960 10958 10956 10955 10954 10952 10951 10951 10952 10951 10952 10952 10953 10954 10956 10956 10957 10958 10959 10960 10961 10961 10962 10964 10964 10965 10966 10966 10966 10965 10964 10962 10961 10960 10958 10956 10953 10951 10947 10945 10942
10975 10972 10968 10966 10965 10961 10960 10959 10957 10956 10956 10955 10955 10955 10955 10956 10957 10958 10958 10958 10959 10960 10961 10962 10964 10965 10966 10966 10967 10966 10966 10966 10965 10963 10963 10962 10959 10956 10954 10953 10951 10948 10945
10985 10980 10976 10973 10972 10969 10965 10964 10963 10962 10960 10959 10959 10960 10960 10960 10960 10960 10959 10959 10961 10962 10962 10964 10966 10967 10966 10966 10967 10966 10966 10966 10966 10967 10965 10963 10961 10959 10956 10955 10952 10950 10947
10993 10988 10983 10981 10979 10977 10973 10970 10968 10967 10966 10964 10962 10962 10963 10964 10963 10961 10960 10959 10959 10961 10962 10964 10966 10966 10966 10967 10967 10967 10968 10970 10970 10969 10967 10966 10963 10960 10958 10956 10954 10952 10949
11001 10997 10992 10988 10985 10982 10979 10976 10973 10972 10972 10970 10969 10969 10969 10969 10968 10966 10964 10962 10961 10961 10963 10966 10967 10968 10968 10968 10969 10971 10973 10973 10972 10972 10970 10967 10964 10962 10960 10957 10955 10952 10948
11006 11004 10999 10995 10991 10988 10984 10982 10980 10977 10976 10975 10975 10976 10975 10976 10975 10973 10970 10968 10968 10966 10968 10970 10970 10971 10972 10974 10975 10975 10976 10976 10976 10974 10970 10968 10965 10962 10959 10956 10954 10951 10947
11011 11009 11006 11002 10999 10996 10992 10988 10985 10983 10981 10980 10980 10979 10979 10978 10977 10977 10976 10976 10975 10975 10974 10974 10975 10977 10978 10980 10980 10980 10980 10979 10977 10974 10971 10968 10965 10962 10958 10955 10952 10949 10947
11016 11014 11012 11007 11005 11003 11000 10997 10992 10989 10986 10985 10984 10984 10983 10984 10983 10982 10979 10978 10978 10979 10979 10981 10981 10981 10981 10981 10982 10982 10981 10980 10978 10975 10972 10969 10966 10962 10959 10955 10953 10950 10947
11020 11018 11017 11013 11009 11008 11006 11003 11000 10996 10994 10991 10989 10988 10988 10988 10988 10987 10984 10983 10983 10983 10984 10984 10984 10984 10984 10983 10983 10984 10983 10981 10980 10977 10973 10970 10967 10962 10959 10955 10952 10949 10946
11024 11021 11019 11018 11014 11011 11011 11009 11006 11002 10999 10998 10995 10992 10990 10990 10990 10989 10989 10988 10987 10986 10986 10987 10987 10986 10986 10987 10987 10987 10986 10984 10981 10978 10975 10972 10967 10963 10959 10954 10950 10947 10944
11025 11023 11022 11021 11019 11016 11013 11013 11011 11009 11005 11003 11001 10999 10997 10995 10994 10992 10990 10990 10989 10988 10988 10988 10989 10989 10990 10990 10990 10990 10989 10986 10983 10980 10977 10974 10970 10964 10959 10954 10949 10946 10943
11026 11025 11024 11023 11021 11019 11017 11016 11016 11014 11011 11009 11007 11004 11003 11001 10999 10998 10996 10994 10993 10993 10992 10992 10993 10994 10994 10994 10994 10993 10990 10988 10985 10983 10979 10975 10971 10965 10960 10955 10950 10946 10943
11026 11026 11025 11024 11024 11021 11020 11019 11019 11019 11017 11014 11012 11009 11008 11006 11004 11002 11001 11000 10999 10998 10997 10995 10996 10998 10999 10999 10998 10995 10992 10990 10988 10985 10982 10978 10972 10966 10961 10956 10952 10947 10943
11026 11026 11027 11025 11024 11023 11020 11020 11020 11019 11019 11017 11017 11014 11012 11011 11010 11008 11007 11006 11004 11002 11001 11002 11001 11003 11004 11003 11000 10997 10995 10993 10991 10988 10985 10979 10973 10968 10963 10958 10953 10948 10943
11026 11025 11026 11027 11024 11023 11023 11022 11021 11020 11020 11020 11020 11019 11017 11016 11014 11011 11012 11011 11010 11008 11007 11008 11007 11006 11007 11005 11003 11000 10998 10996 10994 10991 10986 10981 10976 10970 10965 10960 10955 10949 10944
11023 11024 11024 11025 11025 11023 11022 11020 11021 11021 11021 11022 11023 11021 11020 11019 11017 11015 11016 11015 11013 11012 11012 11011 11010 11009 11009 11007 11005 11003 11001 10999 10995 10992 10988 10983 10979 10973 10967 10961 10956 10951 10946
11019 11020 11022 11023 11024 11023 11022 11022 11020 11021 11022 11022 11023 11023 11022 11020 11019 11018 11017 11016 11016 11016 11016 11014 11013 11012 11011 11009 11008 11006 11004 11000 10997 10994 10989 10985 10981 10975 10970 10964 10959 10953 10948
11016 11017 11018 11021 11022 11021 11022 11022 11021 11021 11021 11020 11021 11022 11022 11022 11020 11019 11019 11018 11019 11019 11019 11017 11016 11015 11013 11011 11009 11008 11006 11004 11000 10995 10991 10987 10982 10977 10972 10966 10960 10955 10950
11010 11013 11014 11018 11019 11018 11019 11019 11020 11020 11021 11021 11021 11020 11021 11020 11021 11020 11020 11020 11019 11020 11019 11019 11018 11016 11014 11012 11011 11009 11007 11005 11000 10997 10994 10989 10984 10979 10974 10968 10962 10957 10951